Regional Weather Roundup
Issued by NWS

Home | Current Version | Previous Version | Text Only | Print | Product List | Glossary Off
Versions: 1 2 3 4 5 6 7 8 9 10 11 12 13 14 15 16 17 18 19 20 21 22 23 24 25 26 27 28 29 30 31 32 33 34 35 36 37 38 39 40 41 42 43 44 45 46 47 48 49 50

000
ASUS43 KTOP 012108
RWRKS

WEATHER ROUNDUP FOR KANSAS
NATIONAL WEATHER SERVICE GOODLAND KS
400 PM CDT SAT AUG 01 2015

NOTE:  "FAIR" INDICATES FEW OR NO CLOUDS BELOW 12,000 FEET WITH NO
SIGNIFICANT WEATHER AND/OR OBSTRUCTIONS TO VISIBILITY.

KSZ001>006-013>018-027>032-041>047-012200-
NORTHWEST KANSAS

CITY           SKY/WX    TMP DP  RH WIND       PRES   REMARKS
GOODLAND       SUNNY     90  48  23 S17G25    30.06F
HAYS           SUNNY     93  59  31 S12G17    30.01F
HILL CITY      MOSUNNY   93  60  33 SE8       30.01F
RUSSELL        PTSUNNY   94  60  32 S13       29.99F
$$

KSZ061>065-074>080-084>089-012200-
SOUTHWEST KANSAS

CITY           SKY/WX    TMP DP  RH WIND       PRES   REMARKS
DODGE CITY     SUNNY     89  61  38 SE13G20   30.04F
ELKHART          N/A     86  68  55 S12         N/A
GARDEN CITY    MOSUNNY   89  58  34 SE9       30.03F
GREAT BEND     SUNNY     91  61  35 S14       30.00F
LIBERAL        PTSUNNY   88  64  45 SE7       30.03F
PRATT          SUNNY     88  63  42 SE7       30.04S
$$

KSZ066>073-081>083-090>101-012200-
SOUTHEAST KANSAS

CITY           SKY/WX    TMP DP  RH WIND       PRES   REMARKS
CHANUTE        MOSUNNY   90  69  50 S5        30.00F
COFFEYVILLE    MOSUNNY   93  69  45 SW10G18   29.99F HX  98
HUTCHINSON     MOSUNNY   90  68  48 S10       30.01F
MEDICINE LODGE   N/A     88  68  51 SE7       29.99F
NEWTON         MOSUNNY   91  68  46 SE7       30.04F HX  95
PARSONS        MOSUNNY   93  70  46 SW7       30.01F HX  99
WICHITA INTL   MOSUNNY   90  69  50 S6        30.01F
WICHITA JABRA  MOSUNNY   90  70  51 S8        30.01F HX  95
WICHITA MCCONL MOSUNNY   89  70  53 SE5       30.01F
WINFIELD       SUNNY     90  71  53 S9        30.01F HX  96
$$

KSZ007>012-019>026-033>040-048>060-102>105-012200-
NORTHEAST KANSAS

CITY           SKY/WX    TMP DP  RH WIND       PRES   REMARKS
CONCORDIA      SUNNY     91  68  46 SE8       29.99F HX  95
EMPORIA        MOSUNNY   91  67  44 SW7       30.00F
LAWRENCE       MOSUNNY   92  70  48 NW7       29.99F HX  97
MANHATTAN      SUNNY     94  66  39 S9        29.98F HX  97
MARYSVILLE     SUNNY     91  70  49 SW8       29.99F HX  97
OLATHE IND     SUNNY     90  67  46 CALM      30.01F
OLATHE EXE     MOSUNNY   91  68  46 VRB7      30.00S HX  95
SALINA         SUNNY     94  62  34 SE12      29.98F
TOPEKA BILLARD PTSUNNY   91  70  49 N5        29.98F HX  96
TOPEKA FORBES  SUNNY     93  66  40 SW5       29.99F HX  96
$$



USA.gov is the U.S. government's official web portal to all federal, state and local government web resources and services.